Weather History for OTBD - September, 2011

Change the Weather History Date:

Friday, September 30, 2011

  Actual Average Record
Temperature  
Mean Temperature 92 °F -  
Max Temperature 100 °F 95 °F 109 °F (2001)
Min Temperature 84 °F 74 °F 78 °F (1996)
Cooling Degree Days 27    
Growing Degree Days 42 (Base 50)    
Moisture  
Dew Point 80 °F    
Average Humidity 71    
Maximum Humidity 84    
Minimum Humidity 45    
Precipitation  
Precipitation 0.00 in 0.00 in - ()
Sea Level Pressure  
Sea Level Pressure 29.77 in    
Wind  
Wind Speed 3 mph ()    
Max Wind Speed 10 mph    
Max Gust Speed -    
Visibility 3.4 miles    
Events      
Averages and records for this station are not official NWS values.
T = Trace of Precipitation, MM = Missing Value Source: Averaged Metar Reports

Daily Weather History Graph

Daily Weather History Graph

Search for Another Location

Airport or City:

Trip Planner

Search our weather history database for the weather conditions in past years. The results will help you decide how hot, cold, wet, or windy it might be!

Date:

Astronomy

Sep. 30, 2011 Rise Set
Actual Time 5:25 AM AST 5:22 PM AST
Civil Twilight 5:02 AM AST 5:45 PM AST
Nautical Twilight 4:35 AM AST 6:11 PM AST
Astronomical Twilight 4:09 AM AST 6:38 PM AST
Moon 8:26 AM AST (9/30) 7:34 PM AST (9/30)
Length of Visible Light 12h 42m
Length of Day
11h 56m
Waxing Crescent, 12% of the Moon is Illuminated
Sep 30
Waxing Crescent
Oct 4
First Quarter
Oct 12
Full
Oct 20
Last Quarter
Oct 26
New

Hourly Weather History & Observations

Time (AST) Temp. Heat Index Dew Point Humidity Pressure Visibility Wind Dir Wind Speed Gust Speed Precip Events Conditions
12:00 AM 87.8 °F 104.9 °F 80.6 °F 79% 29.77 in 5.0 mi Variable 2.3 mph - N/A   Unknown
12:30 AM 87.8 °F 104.9 °F 80.6 °F 79% 29.77 in 4.3 mi Variable 2.3 mph - N/A   Unknown
1:00 AM 87.8 °F 104.9 °F 80.6 °F 79% 29.74 in 4.3 mi Variable 1.2 mph - N/A   Unknown
1:30 AM 87.8 °F 104.9 °F 80.6 °F 79% 29.74 in 4.3 mi Variable 2.3 mph - N/A   Unknown
2:00 AM 87.8 °F 104.9 °F 80.6 °F 79% 29.74 in 4.3 mi Calm Calm - N/A   Unknown
2:30 AM 87.8 °F 104.9 °F 80.6 °F 79% 29.74 in 4.3 mi Variable 1.2 mph - N/A   Haze
3:00 AM 87.8 °F 104.9 °F 80.6 °F 79% 29.74 in 3.7 mi SW 3.5 mph - N/A   Unknown
3:30 AM 87.8 °F 102.5 °F 78.8 °F 75% 29.74 in 3.7 mi Variable 1.2 mph - N/A   Haze
4:00 AM 86.0 °F 99.3 °F 78.8 °F 79% 29.74 in 3.1 mi Variable 2.3 mph - N/A   Haze
4:30 AM 86.0 °F 101.9 °F 80.6 °F 84% 29.77 in 3.1 mi Variable 1.2 mph - N/A   Haze
5:00 AM 86.0 °F 101.9 °F 80.6 °F 84% 29.77 in 2.8 mi Calm Calm - N/A   Haze
5:30 AM 86.0 °F 101.9 °F 80.6 °F 84% 29.77 in 2.5 mi Calm Calm - N/A   Haze
6:00 AM 86.0 °F 99.3 °F 78.8 °F 79% 29.77 in 2.8 mi SW 3.5 mph - N/A   Haze
6:30 AM 86.0 °F 101.9 °F 80.6 °F 84% 29.77 in 2.8 mi SW 3.5 mph - N/A   Haze
7:00 AM 87.8 °F 104.9 °F 80.6 °F 79% 29.80 in 2.8 mi Variable 2.3 mph - N/A   Haze
7:30 AM 87.8 °F 104.9 °F 80.6 °F 79% 29.80 in 2.5 mi Variable 1.2 mph - N/A   Haze
8:00 AM 89.6 °F 108.2 °F 80.6 °F 75% 29.80 in 2.5 mi Variable 1.2 mph - N/A   Haze
8:30 AM 91.4 °F 111.0 °F 80.6 °F 71% 29.80 in 2.5 mi SW 4.6 mph - N/A   Haze
9:00 AM 92 °F - 80 °F 61% 29.83 in 2 mi SSE 3.5 mph - -   Haze
9:00 AM 91.4 °F 111.0 °F 80.6 °F 71% 29.80 in 2.5 mi SSE 3.5 mph - N/A   Haze
9:30 AM 93.2 °F 113.6 °F 80.6 °F 67% 29.80 in 2.5 mi Variable 2.3 mph - N/A   Haze
10:00 AM 95.0 °F 115.8 °F 80.6 °F 63% 29.80 in 2.8 mi Variable 3.5 mph - N/A   Haze
11:00 AM 96.8 °F 118.6 °F 80.6 °F 60% 29.80 in 3.1 mi SE 5.8 mph - N/A   Haze
11:30 AM 96.8 °F 114.8 °F 78.8 °F 56% 29.77 in 3.1 mi East 9.2 mph - N/A   Haze
12:00 PM 96.8 °F 118.6 °F 80.6 °F 60% 29.77 in 3.1 mi East 8.1 mph - N/A   Haze
12:30 PM 98.6 °F 120.3 °F 80.6 °F 56% 29.77 in 3.7 mi East 10.4 mph - N/A   Unknown
1:00 PM 98.6 °F 114.4 °F 77.0 °F 50% 29.74 in 3.7 mi ESE 5.8 mph - N/A   Unknown
1:30 PM 98.6 °F 117.2 °F 78.8 °F 53% 29.74 in 3.7 mi ESE 6.9 mph - N/A   Unknown
2:00 PM 96.8 °F 114.8 °F 78.8 °F 56% 29.74 in 3.7 mi ESE 6.9 mph - N/A   Unknown
2:30 PM 96.8 °F 114.8 °F 78.8 °F 56% 29.74 in 3.7 mi East 6.9 mph - N/A   Unknown
3:00 PM 98 °F - 78 °F 45% 29.75 in 4 mi East 6.9 mph - -   Haze
3:00 PM 98.6 °F 117.2 °F 78.8 °F 53% 29.74 in 3.7 mi East 5.8 mph - N/A   Unknown
3:30 PM 96.8 °F 114.8 °F 78.8 °F 56% 29.74 in 3.7 mi East 5.8 mph - N/A   Unknown
4:00 PM 95.0 °F 115.8 °F 80.6 °F 63% 29.74 in 3.7 mi East 6.9 mph - N/A   Unknown
4:30 PM 93.2 °F 113.6 °F 80.6 °F 67% 29.74 in 3.7 mi East 6.9 mph - N/A   Unknown
5:00 PM 93.2 °F 113.6 °F 80.6 °F 67% 29.74 in 3.7 mi ENE 6.9 mph - N/A   Unknown
6:00 PM 91.4 °F 111.0 °F 80.6 °F 71% 29.74 in 3.1 mi East 4.6 mph - N/A   Haze
6:30 PM 91.4 °F 111.0 °F 80.6 °F 71% 29.74 in 3.1 mi East 5.8 mph - N/A   Haze
7:00 PM 91.4 °F 114.3 °F 82.4 °F 75% 29.77 in 3.7 mi NE 6.9 mph - N/A   Unknown
8:00 PM 89.6 °F 111.1 °F 82.4 °F 79% 29.80 in 3.7 mi NNE 8.1 mph - N/A   Unknown
8:30 PM 89.6 °F 108.2 °F 80.6 °F 75% 29.80 in 3.7 mi NNE 8.1 mph - N/A   Unknown
9:00 PM 89 °F - 82 °F 73% 29.82 in 4 mi NE 6.9 mph - -   Haze
9:00 PM 89.6 °F 111.1 °F 82.4 °F 79% 29.80 in 3.7 mi NE 6.9 mph - N/A   Unknown
9:30 PM 89.6 °F 111.1 °F 82.4 °F 79% 29.80 in 3.7 mi NNE 8.1 mph - N/A   Unknown
10:00 PM 89.6 °F 108.2 °F 80.6 °F 75% 29.80 in 3.7 mi NNE 8.1 mph - N/A   Unknown
10:30 PM 87.8 °F 104.9 °F 80.6 °F 79% 29.80 in 3.7 mi NNE 6.9 mph - N/A   Unknown
11:00 PM 87.8 °F 104.9 °F 80.6 °F 79% 29.80 in 3.1 mi NE 8.1 mph - N/A   Haze
11:30 PM 87.8 °F 108.2 °F 82.4 °F 84% 29.80 in 3.1 mi ENE 4.6 mph - N/A   Haze